VOI3599 MMOX-MMUN

Flight info

Callsign VOI3599
Flight time N/A
Altitude 39000
Route OAX3B OAX V16 KANAL DCT PAULE PAULE2K
Aircraft A20N/M-SDE2E3FGHIRWXY/S

Departure

Time N/A
Airport Xoxocotlán International Airport (MMOX)

Arrival

Time 2026-05-05 03:47
Airport Cancún International Airport (MMUN)
Time Latitude Longitude Altitude Speed Heading
2026-05-05 03:20 19.84646 -87.36334 23938 ft 353 kts 48°
2026-05-05 03:21 19.86058 -87.34298 23936 ft 338 kts 48°
2026-05-05 03:21 19.87422 -87.32342 23936 ft 323 kts 48°
2026-05-05 03:21 19.88753 -87.30434 23945 ft 319 kts 47°
2026-05-05 03:21 19.90094 -87.28511 23949 ft 318 kts 48°
2026-05-05 03:22 19.91415 -87.26611 23953 ft 319 kts 48°
2026-05-05 03:22 19.92733 -87.24710 23954 ft 319 kts 48°
2026-05-05 03:22 19.94043 -87.22819 23952 ft 319 kts 48°
2026-05-05 03:22 19.95372 -87.20895 23953 ft 319 kts 48°
2026-05-05 03:23 19.96684 -87.18996 23952 ft 320 kts 48°
2026-05-05 03:23 19.98012 -87.17069 23952 ft 320 kts 48°
2026-05-05 03:23 19.99314 -87.15178 23953 ft 320 kts 48°
2026-05-05 03:23 20.00639 -87.13254 23952 ft 319 kts 48°
2026-05-05 03:24 20.01955 -87.11345 23953 ft 319 kts 48°
2026-05-05 03:24 20.03254 -87.09458 23952 ft 319 kts 48°
2026-05-05 03:24 20.04572 -87.07544 23952 ft 319 kts 48°
2026-05-05 03:24 20.05885 -87.05637 23950 ft 320 kts 48°
2026-05-05 03:25 20.07190 -87.03740 23949 ft 320 kts 48°
2026-05-05 03:25 20.08501 -87.01834 23949 ft 320 kts 48°
2026-05-05 03:25 20.09826 -86.99907 23950 ft 320 kts 48°
2026-05-05 03:25 20.11155 -86.97971 23951 ft 320 kts 48°
2026-05-05 03:26 20.12462 -86.96069 23946 ft 320 kts 48°
2026-05-05 03:26 20.13775 -86.94157 23942 ft 320 kts 48°
2026-05-05 03:26 20.15097 -86.92233 23931 ft 320 kts 48°
2026-05-05 03:26 20.16411 -86.90320 23904 ft 320 kts 47°
2026-05-05 03:27 20.17718 -86.88416 23525 ft 322 kts 48°
2026-05-05 03:27 20.19050 -86.86475 23138 ft 320 kts 48°
2026-05-05 03:27 20.20455 -86.84709 22833 ft 307 kts 31°
2026-05-05 03:27 20.22328 -86.83795 22442 ft 291 kts
2026-05-05 03:28 20.24313 -86.83810 22079 ft 282 kts 346°
2026-05-05 03:28 20.26166 -86.84391 21701 ft 280 kts 339°
2026-05-05 03:28 20.28021 -86.85057 21308 ft 280 kts 339°
2026-05-05 03:28 20.29859 -86.85707 20956 ft 278 kts 339°
2026-05-05 03:29 20.31720 -86.86354 20584 ft 277 kts 340°
2026-05-05 03:29 20.33556 -86.86984 20235 ft 276 kts 340°
2026-05-05 03:29 20.35363 -86.87602 19884 ft 275 kts 340°
2026-05-05 03:29 20.37210 -86.88229 19487 ft 276 kts 340°
2026-05-05 03:30 20.39038 -86.88850 19000 ft 280 kts 339°
2026-05-05 03:30 20.40904 -86.89482 18524 ft 284 kts 340°
2026-05-05 03:30 20.42817 -86.90129 18025 ft 287 kts 339°
2026-05-05 03:30 20.44751 -86.90781 17437 ft 295 kts 339°
2026-05-05 03:31 20.46715 -86.91446 16877 ft 302 kts 339°
2026-05-05 03:31 20.48751 -86.92136 16280 ft 309 kts 340°
2026-05-05 03:31 20.50804 -86.92830 15663 ft 316 kts 340°
2026-05-05 03:31 20.52915 -86.93542 15083 ft 320 kts 340°
2026-05-05 03:32 20.55070 -86.94269 14498 ft 325 kts 340°
2026-05-05 03:32 20.57229 -86.94997 13951 ft 327 kts 340°
2026-05-05 03:32 20.59371 -86.95719 13735 ft 317 kts 340°
2026-05-05 03:32 20.61448 -86.96418 13559 ft 307 kts 340°
2026-05-05 03:33 20.63460 -86.97096 13390 ft 298 kts 340°
2026-05-05 03:33 20.65424 -86.97759 13243 ft 288 kts 340°
2026-05-05 03:33 20.67308 -86.98395 13094 ft 279 kts 340°
2026-05-05 03:33 20.69132 -86.99014 12880 ft 273 kts 339°
2026-05-05 03:34 20.70941 -86.99630 12398 ft 279 kts 340°
2026-05-05 03:34 20.72819 -87.00271 11739 ft 290 kts 340°
2026-05-05 03:34 20.74774 -87.00937 11046 ft 299 kts 341°
2026-05-05 03:34 20.76783 -87.01618 10377 ft 308 kts 341°
2026-05-05 03:35 20.78851 -87.02319 9824 ft 311 kts 341°
2026-05-05 03:35 20.80873 -87.03002 9663 ft 301 kts 342°
2026-05-05 03:35 20.82857 -87.03672 9483 ft 291 kts 342°
2026-05-05 03:35 20.84768 -87.04319 9250 ft 283 kts 342°
2026-05-05 03:36 20.86632 -87.04951 8921 ft 281 kts 342°
2026-05-05 03:36 20.88499 -87.05586 8600 ft 278 kts 342°
2026-05-05 03:36 20.90311 -87.06202 8429 ft 269 kts 342°
2026-05-05 03:36 20.92070 -87.06800 8263 ft 260 kts 342°
2026-05-05 03:37 20.93787 -87.07385 8118 ft 252 kts 342°
2026-05-05 03:37 20.95426 -87.07941 7902 ft 246 kts 342°
2026-05-05 03:37 20.97061 -87.08498 7581 ft 245 kts 342°
2026-05-05 03:37 20.98700 -87.09055 7090 ft 253 kts 342°
2026-05-05 03:38 21.00463 -87.09655 6025 ft 282 kts 343°
2026-05-05 03:38 21.02379 -87.10307 5100 ft 301 kts 343°
2026-05-05 03:38 21.04396 -87.10993 4452 ft 307 kts 343°
2026-05-05 03:38 21.06443 -87.11687 4100 ft 302 kts 343°
2026-05-05 03:39 21.08383 -87.12419 4012 ft 288 kts 334°
2026-05-05 03:39 21.09846 -87.13766 3980 ft 273 kts 307°
2026-05-05 03:39 21.10828 -87.15455 3973 ft 257 kts 300°
2026-05-05 03:39 21.11783 -87.16995 3961 ft 242 kts 318°
2026-05-05 03:40 21.13197 -87.17853 3955 ft 226 kts 350°
2026-05-05 03:40 21.14702 -87.17866 3842 ft 214 kts 17°
2026-05-05 03:40 21.16007 -87.17158 3557 ft 210 kts 44°
2026-05-05 03:40 21.16860 -87.15923 3275 ft 206 kts 70°
2026-05-05 03:41 21.17127 -87.14443 3026 ft 203 kts 91°
2026-05-05 03:41 21.17085 -87.12935 2980 ft 204 kts 92°
2026-05-05 03:41 21.17031 -87.11401 2979 ft 204 kts 92°
2026-05-05 03:41 21.16986 -87.09906 2969 ft 201 kts 92°
2026-05-05 03:42 21.16948 -87.08418 2976 ft 201 kts 92°
2026-05-05 03:42 21.16843 -87.06929 2968 ft 200 kts 103°
2026-05-05 03:42 21.16339 -87.05523 2964 ft 201 kts 119°
2026-05-05 03:42 21.15594 -87.04250 2986 ft 201 kts 123°
2026-05-05 03:43 21.14800 -87.03012 3002 ft 201 kts 123°
2026-05-05 03:43 21.14010 -87.01784 2883 ft 202 kts 123°
2026-05-05 03:43 21.13232 -87.00553 2672 ft 195 kts 122°
2026-05-05 03:43 21.12499 -86.99385 2449 ft 181 kts 122°
2026-05-05 03:44 21.11822 -86.98299 2201 ft 170 kts 122°
2026-05-05 03:44 21.11182 -86.97272 1973 ft 159 kts 122°
2026-05-05 03:44 21.10594 -86.96330 1761 ft 146 kts 122°
2026-05-05 03:44 21.10049 -86.95458 1565 ft 138 kts 122°
2026-05-05 03:45 21.09520 -86.94608 1396 ft 138 kts 122°
2026-05-05 03:45 21.08980 -86.93744 1231 ft 137 kts 123°
2026-05-05 03:45 21.08451 -86.92899 1068 ft 137 kts 123°
2026-05-05 03:45 21.07921 -86.92044 885 ft 137 kts 123°
2026-05-05 03:46 21.07398 -86.91207 700 ft 136 kts 123°
2026-05-05 03:46 21.06862 -86.90358 531 ft 136 kts 123°
2026-05-05 03:46 21.06334 -86.89514 346 ft 135 kts 124°
2026-05-05 03:46 21.05814 -86.88684 195 ft 135 kts 123°
2026-05-05 03:47 21.05297 -86.87859 51 ft 127 kts 124°
2026-05-05 03:47 21.04894 -86.87217 42 ft 77 kts 124°
2026-05-05 03:47 21.04690 -86.86889 40 ft 37 kts 123°
2026-05-05 03:47 21.04549 -86.86667 41 ft 34 kts 124°
2026-05-05 03:48 21.04412 -86.86475 41 ft 31 kts 138°
2026-05-05 03:48 21.04264 -86.86375 42 ft 7 kts 151°
2026-05-05 03:48 21.04212 -86.86353 42 ft 8 kts 180°
2026-05-05 03:48 21.04183 -86.86396 42 ft 8 kts 284°
2026-05-05 03:49 21.04206 -86.86417 42 ft 5 kts 115°
2026-05-05 03:49 21.04171 -86.86376 42 ft 9 kts 133°
2026-05-05 03:49 21.04123 -86.86317 43 ft 10 kts 126°
2026-05-05 03:49 21.04083 -86.86250 44 ft 10 kts 128°
2026-05-05 03:50 21.04018 -86.86236 44 ft 10 kts 205°
2026-05-05 03:50 21.03950 -86.86279 44 ft 12 kts 213°
2026-05-05 03:50 21.03866 -86.86337 42 ft 15 kts 214°
2026-05-05 03:50 21.03779 -86.86400 43 ft 15 kts 213°
2026-05-05 03:51 21.03674 -86.86474 42 ft 18 kts 214°
2026-05-05 03:51 21.03585 -86.86539 41 ft 10 kts 222°
2026-05-05 03:51 21.03575 -86.86615 40 ft 12 kts 297°
2026-05-05 03:51 21.03601 -86.86705 39 ft 11 kts 300°
2026-05-05 03:52 21.03630 -86.86752 39 ft 3 kts 304°
2026-05-05 03:52 21.03636 -86.86762 39 ft 0 kts 304°